Weather in Istye

Russia / Kaluga Oblast     55°07′44″N   36°50′49″E
temp.,
°C
wind,
m/s
gust,
m/s
humid.,
%
clouds,
%
prec.,
mm/h
press.,
hPa
HPBL,
m
15 may, sat
sat1500:00+13e389850 0.6 1010188
03:00+13ese379895 0.6 1009136
06:00+14sse249742 0.0 1007114
09:00+19ssw36837 0.1 1008487
12:00+21ssw466264 0.7 10081453
15:00+20ssw57604 1.3 10081448
18:00+17ssw5107838 1.3 1008728
21:00+13s3119446 2.1 1009403
16 may, sun
sun1600:00+13ssw412955 0.3 1009461
03:00+11s399826 0.3 1011255
06:00+12s399717 0.0 1011324
09:00+16ssw488017 0.0 1012648
12:00+20sw57577 0.1 10121569
15:00+21sw565551 0.1 10121741
18:00+20sw37660 0.0 10131129
21:00+14sw12900 0.0 101410
17 may, mon
mon1700:00+13sse1192100 0.0 101410
03:00+12ese2294100 0.0 101516
06:00+13ese259150 0.0 1015120
09:00+19ese366697 0.0 1014522
12:00+24ese575777 0.0 10121158
15:00+25ese58555 0.0 10111416
18:00+24ese5106798 0.0 1009865
21:00+20ese5157999 0.0 1009681
18 may, tue
tue1800:00+18se51583100 0.0 1008485
03:00+16se4138058 0.0 1007422
06:00+16se4128235 0.0 1006379
09:00+20sse51169100 0.0 1006673
12:00+24sse6106062 0.0 10061350
15:00+24sse6105776 0.1 10051762
18:00+18s51186100 3.1 1006776
21:00+14sse39935 3.8 1007259
19 may, wed
wed1900:00+14se239620 0.0 100657
03:00+13se2697100 0.0 1005125
06:00+14se3996100 0.0 1004325
09:00+17s4984100 0.4 1004723
12:00+17s368397 0.8 1004857
15:00+16sw478897 4.2 1004664
18:00+14w4990100 2.8 1005609
21:00+12wsw3993100 3.0 1008373